STARLINK-11549, 62832

Orbit data source: Space-Track

STARLINK-11549, 62832 is a payload satellite owned by SpaceX/Seattle (US) in LEO that was launched on Mon, 27 Jan 2025 UTC via an FALCON 9 launch vehicle from the Air Force Eastern Test Range (AFETR). Payload-class satellites include a variety of spacecraft equipped with specific instruments for various scientific and technological missions. These include communications satellites like Starlink; space stations such as the ISS; scientific satellites like the Hubble; Earth observation satellites from companies like Planet Labs, Umbra, and HawkEye 360; GPS; miniature CubeSats for education and research; and military/defense satellites.

Loading next visibility...
Identifier
62832, 2025-019D
Orbit
LEO
Country
Flag of USUS
Related business
Manufacturer
SpaceX/Seattle
Mission
Operational Commercial Communications
Bus & Motor
STARLINK V2MD, Unknown motor
Mass
960 kg wet, ~910 kg dry
Launch date (UTC)
2025-01-27 (1 year ago)
Launch vehicle
FALCON 9
Launch site
Air Force Eastern Test Range (AFETR)
Object type
Payload
Rocket body
Debris
Shape & HBR
Box + 2 Pan, 18.1 m
Radar Cross Section
36.964 m², Large (>1 m²)

Expand to show TLE details & history
Last TLE update: 4 hours ago

TLE from 4 hours ago
0 STARLINK-11549
1 62832U 25019D   26175.28999326  .00167055  00000-0  12779-2 0  9999
2 62832  42.9979  23.6622 0001547  61.1345 298.9677 15.70867626 80645
Epoch: 2026-06-24T06:57Z
TLE epoch observation values (Epoch: 2026-06-24T06:57:35.417Z)
Latitude
-0.00008°
Longitude
6.81521°
Altitude
355.683 km
Speed
7.698 km/s
True Right ascension
01h 34m 38s
True Declination
0° 00' 00"
Sunlit
Object was in daylight at epoch
Visualization orbit readout
Latitude
Unknown
Longitude
Unknown
Altitude
Unknown
Speed
Unknown
Apparent Right ascension
Unknown
Apparent Declination
Unknown
Sunlit
N/A
Visualization observer readout
Local Sidereal Time
21:54:08
Azimuth
Unknown
Elevation
Unknown
Doppler factor
Unknown
Orbital elements
Apogee altitude
359.44 km
Perigee altitude
357.356 km
Semi-major axis
6,736.535 km
Eccentricity
0.00015
Inclination
42.9979°
RAAN
23.6622°
Arg. of periapsis
61.1345°
True anomaly
298.95219°
Mean anomaly
298.9677°
Eccentric anomaly
298.95994°
Mean motion
3.92544 °/min
Orbital period
91.71 mins
BSTAR
0.0012779
Loading maneuver chart data...
Computing Atmospheric mass density...
Loading historical data...
Loading historical data...
Loading historical data...
Loading historical data...
Loading historical data...
Loading historical data...
Loading historical data...

Documentation

Showing up to 5 results
|